Tracking 32938 objects as of 12-Jan-2026
HD Live streaming from Space Station
objects crossing your sky now

QIANFAN-48

Track QIANFAN-48 now!
10-day predictions
QIANFAN-48 is classified as:


NORAD ID: 62249
Int'l Code: 2024-232N
Perigee: 1,061.6 km
Apogee: 1,089.9 km
Inclination: 89.0 °
Period: 106.6 minutes
Semi major axis: 7446 km
RCS: Unknown
Launch date: December 5, 2024
Source: People's Republic of China (PRC)
Launch site: Taiyaun Space Center, China (TSC)
Your satellite tracking list
Your tracking list is empty




NASA's NSSDC Master Catalog

Two Line Element Set (TLE):
1 62249U 24232N   26012.21898894  .00000018  00000-0  89237-5 0  9999
2 62249  89.0003  38.1458 0018992 110.7020 249.6169 13.50983332103361
Source of the keplerian elements: AFSPC